Regional Weather Roundup
Issued by NWS

Home | Current Version | Previous Version | Graphics & Text | Print | Product List | Glossary Off
Versions: 1 2 3 4 5 6 7 8 9 10 11 12 13 14 15 16 17 18 19 20 21 22 23 24 25 26 27 28 29 30 31 32 33 34 35 36 37 38 39 40 41 42 43 44 45 46 47 48 49 50

000
ASUS43 KTOP 250759
RWRKS

WEATHER ROUNDUP FOR KANSAS
NATIONAL WEATHER SERVICE GOODLAND KS
300 AM CDT SAT OCT 25 2014

NOTE:  "FAIR" INDICATES FEW OR NO CLOUDS BELOW 12,000 FEET WITH NO
SIGNIFICANT WEATHER AND/OR OBSTRUCTIONS TO VISIBILITY.

KSZ001>006-013>018-027>032-041>047-250900-
NORTHWEST KANSAS

CITY           SKY/WX    TMP DP  RH WIND       PRES   REMARKS
GOODLAND       CLEAR     48  36  63 W6        30.13S
HAYS           CLEAR     55  46  71 W3        30.04R
HILL CITY      CLEAR     47  41  80 CALM      30.05S
RUSSELL        CLEAR     56  52  86 SW3       30.03R
$$

KSZ061>065-074>080-084>089-250900-
SOUTHWEST KANSAS

CITY           SKY/WX    TMP DP  RH WIND       PRES   REMARKS
DODGE CITY     CLEAR     56  48  74 SW6       30.07S
ELKHART          N/A     59  38  45 W8          N/A
GARDEN CITY    CLEAR     56  44  64 W5        30.08S
GREAT BEND     CLEAR     55  52  88 S6        30.04S
LIBERAL        CLEAR     54  39  58 W5        30.11R
$$

KSZ066>073-081>083-090>101-250900-
SOUTHEAST KANSAS

CITY           SKY/WX    TMP DP  RH WIND       PRES   REMARKS
CHANUTE        CLEAR     57  57 100 S6        30.03R FOG
COFFEYVILLE    CLEAR     61  59  93 S6        30.03R
HUTCHINSON     FOG       57  55  93 CALM      30.03S VSB 1/4
NEWTON         CLEAR     63  55  77 SW6       30.06R
PARSONS        CLEAR     58  58 100 CALM      30.05R FOG
WICHITA INTL   CLEAR     59  57  93 S5        30.03R FOG
WICHITA JABRA  CLEAR     60  58  92 S3        30.03R
WINFIELD       CLEAR     64  60  87 CALM      30.05R
$$

KSZ007>012-019>026-033>040-048>060-102>105-250900-
NORTHEAST KANSAS

CITY           SKY/WX    TMP DP  RH WIND       PRES   REMARKS
CONCORDIA      CLEAR     58  51  78 SE3       30.03S
EMPORIA        CLEAR     58  57  97 NE10      30.03R
LAWRENCE       FOG       52  51  97 NW3       30.02R VSB 1/4
MANHATTAN      CLEAR     57  57 100 CALM      30.02S FOG
OLATHE IND     CLEAR     58  57  97 S5        30.02S FOG
OLATHE EXE     CLEAR     60  60 100 SW3       30.01R FOG
SALINA         CLEAR     60  57  89 CALM      30.04R FOG
TOPEKA BILLARD FOG       57  57 100 CALM      30.02R VSB 1/4
TOPEKA FORBES  CLEAR     58  57  97 W3        30.02R
$$



USA.gov is the U.S. government's official web portal to all federal, state and local government web resources and services.